Duchifat 3
1 44854U 19089C   25062.82823768  .00043328  00000-0  12086-2 0  9990
2 44854  36.9464 252.0917 0005560  83.7530 276.3857 15.35788119287853
TO-108
1 44881U 19093C   25062.75170465  .00002147  00000-0  25623-3 0  9992
2 44881  97.8004 140.4393 0013755 187.3501 172.7515 14.85219097281550
FloripaSat 1
1 44885U 19093G   25062.80401250  .00008236  00000-0  72753-3 0  9992
2 44885  97.8196 150.3232 0011293 168.0004 192.1489 14.96569287282117
RS-44
1 44909U 19096E   25062.59423199  .00000017  00000-0  19778-4 0  9992
2 44909  82.5194 292.4009 0217685 164.4318 196.3621 12.79738814242151
UPMSat 2
1 46276U 20061E   25062.79033483  .00047205  00000-0  70805-3 0  9997
2 46276  97.2576 134.8343 0001002 183.5350 176.5898 15.54785771250200
SALSAT
1 46495U 20068K   25062.50864217  .00010307  00000-0  47575-3 0  9994
2 46495  97.8522  36.2199 0013708 134.4157 225.8202 15.20344488243613
CubeSX-Sirius-HSE
1 47951U 21022V   25062.83074880  .00087046  00000-0  12414-2 0  9995
2 47951  97.4304 330.7563 0003741 302.7833  57.3061 15.55996845218474
CubeSX-HSE
1 47952U 21022W   25062.80516360  .00089167  00000-0  12440-2 0  9992
2 47952  97.4304 330.9222 0003426 289.7479  70.3406 15.56586846218485
KSU-Cubesat
1 47954U 21022Y   25062.81991128  .00375074  00000-0  15925-2 0  9990
2 47954  97.4252 335.6056 0003427 137.8696 222.2838 15.84348166218503
GRBAlpha
1 47959U 21022AD  25062.83320128  .00094164  00000-0  13229-2 0  9996
2 47959  97.4291 331.1035 0003660 300.0641  60.0250 15.56378722217316
Orbicraft-Zorkiy
1 47960U 21022AE  25062.82967270  .00169350  00000-0  13866-2 0  9999
2 47960  97.4271 334.4875 0000794 189.2710 170.8537 15.69998080218197
TUBIN
1 48900U 21059X   25062.81044194  .00045423  00000-0  82030-3 0  9998
2 48900  97.6686 224.9152 0005005 241.7786 118.2959 15.49584681204849
LEDSAT
1 49069U 21073D   25062.73798346  .00048464  00000-0  97108-3 0  9997
2 49069  97.3994 141.1870 0012183  78.9527 281.3092 15.46502469196245
CUTE
1 49263U 21088D   25062.15612309  .00017069  00000-0  39851-3 0  9997
2 49263  97.4609 135.8454 0008730 234.1565 125.8872 15.42234376189238
TeikyoSat 4
1 49396U 21102B   25062.56871104  .00003226  00000-0  21942-3 0  9998
2 49396  97.4249 104.5019 0014523 107.8999 252.3814 15.06927742181789
Z-Sat
1 49399U 21102E   25062.79141612  .00006852  00000-0  38941-3 0  9995
2 49399  97.3950 107.2477 0020137  84.3072 276.0454 15.13034811182189
KOSEN 1
1 49402U 21102H   25062.67347406  .00009900  00000-0  48579-3 0  9991
2 49402  97.3853 109.8563 0017777  64.5115 295.7956 15.18154183182426
HO-113
1 50466U 21131B   25062.83682255  .00001200  00000-0  39034-3 0  9998
2 50466  98.5111 152.6920 0005124  76.7461 283.4298 14.40586122167379
IRIS-A
1 51044U 22002BN  25062.15558498  .00084008  00000-0  98232-3 0  9997
2 51044  97.3395 137.6876 0004255 188.5567 171.5619 15.61297680174362
Foresail-1
1 52766U 22057AL  25062.32054781  .00081164  00000-0  97749-3 0  9996
2 52766  97.6002 204.9583 0007024 273.9193  86.1260 15.60516678154424
SNUGLITE 2
1 52899U 22065F   25062.34700278  .00002585  00000-0  51626-3 0  9997
2 52899  98.1509 205.3942 0008380  65.9578 294.2500 14.62728919142122
IO-117
1 53106U 22080B   25051.21822557 -.00000003  00000-0  00000+0 0  9995
2 53106  70.1434 106.3440 0008542  48.0089 312.1297  6.42557744 61200
FO-118
1 54684U 22167C   25062.71135336  .02552339  25335-5  16155-2 0  9991
2 54684  97.5946 228.4299 0010507 290.2392  69.7765 16.17561191124527
UmKA 1 (RS40S)
1 57172U 23091G   25062.82744610  .00008621  00000-0  48410-3 0  9991
2 57172  97.5724 118.7634 0013875 315.1294  44.8815 15.13490775 92684
CubeBel-2 (EU11S)
1 57175U 23091K   25062.81736408  .00011959  00000-0  61712-3 0  9997
2 57175  97.5725 119.3792 0011933 325.7344  34.3117 15.16424846 92729
VERONIKA
1 58261U 23174F   25062.78363669  .00062795  00000-0  12257-2 0  9990
2 58261  97.4238 144.8702 0006103  37.7169 322.4508 15.47260033 73450
KAFASAT
1 58317U 23174BP  25062.43489291  .00238248  00000-0  17806-2 0  9997
2 58317  97.4106 148.3121 0004946 309.8611  50.2217 15.71980508 73678
ENSO
1 58470U 23185J   25062.83219388  .00043171  00000-0  95616-3 0  9996
2 58470  97.3857 135.6372 0008456  77.7934 282.4261 15.43619693 69896
EIRSAT-1
1 58472U 23185L   25062.80500732  .00062632  00000-0  11842-2 0  9992
2 58472  97.3850 136.3945 0006991  76.8223 283.3807 15.48175692 69941
SONATE-2
1 59112U 24043Q   25061.90432848  .00020543  00000-0  69044-3 0  9993
2 59112  97.4993 191.5252 0012230 105.7671 254.4919 15.30786320 55213
MO-122
1 60209U 24125G   25062.52585914  .00021766  00000-0  72038-3 0  9990
2 60209  97.2922 275.4744 0021829 126.5265 233.7990 15.31104995 36923
GRBBeta
1 60237U 24128C   25062.40892365  .00007156  00000-0  56069-3 0  9995
2 60237  61.9923  61.5188 0042712  35.1667 325.2228 15.01126620 35458
Curium One
1 60242U 24128H   25062.31378909  .00011473  00000-0  85474-3 0  9993
2 60242  61.9823  61.3519 0043070  30.0115 330.3430 15.02582292 35453
ROBUSTA-3A
1 60243U 24128J   25062.68868989  .00010571  00000-0  79789-3 0  9996
2 60243  61.9893  60.5729 0041361  28.1786 332.1530 15.02210713 35501
CatSat
1 60246U 24125J   25062.53296593  .00012659  00000-0  45693-3 0  9992
2 60246  97.2708 275.6760 0046649  83.3495 277.3051 15.27579386 35003
HYPERVIEW-1G (RS66S)
1 61772U 24199AP  25062.69841962  .00024371  00000-0  84263-3 0  9991
2 61772  97.3696 292.0297 0015145 176.7391 183.3951 15.29790151 61968
AO-123
1 61781U 24199AY  25062.77312634  .00011064  00000-0  42850-3 0  9990
2 61781  97.3703 291.7908 0016441 178.6287 181.5000 15.26212113 61955
ZIMSAT 2
1 61783U 24199BA  25062.78282901  .00034744  00000-0  11291-2 0  9990
2 61783  97.3690 292.2156 0016033 176.1891 183.9476 15.31707867 65132
POEM 4 (BGS ARPIT)
1 62461U 24253C   25062.71614988  .00211594  27000-4  71753-3 0  9995
2 62461  55.2169 314.6440 0009207 107.1797 253.0265 15.89509411  9949
HADES-R (SO-124)
1 62690U 25009CK  25062.17776017  .00033973  00000-0  15912-2 0  9995
2 62690  97.4174 143.9738 0002612  90.2563 269.8971 15.19632187  7156
